FENGYUN 1C DEB

Satellite information

Favourite Embed

Satellite Type and Status

DEBRISIN ORBIT

Key statistics

Satellite FENGYUN 1C DEB at a glance.

Uptime

9715

Days in orbit

Revolutions

≈ 13.9

Per day

Orbit

SSO

Sun Synchronous Orbit

Inclination

99.0

Latest

Satellite identification and parameters

Extended collection of information and parameters for FENGYUN 1C DEB.

Object identification

Identified? True

Debris? True

Object name: FENGYUN 1C DEB

International designator: 1999-025DNB

Object number (NORAD): 35171

Object ID (CCSDS): 35171

Country: PEOPLES REPUBLIC OF CHINA (PRC)

Current information (Y/N): Y

RCS size: SMALL

Orbital parameters

Period: 103.228 minutes

Inclination: 99.0086 deg

SMA: 7289.414 km

Apoapsis: 1011.804 km

Periapsis: 810.753 km

RAAN: 138.2387 deg

Eccentricy: 0.01379064

Argument of periapsis: 318.3422 deg

Mean anomaly: 40.73 deg

Mean motion: 13.94966828 rev/day

Mean motion (dot): 0.00003307 rev/day2

B* drag term: 0.0023007152 1/REarth

Two-line elements (TLE)

Creation date: Dec. 13, 2025, 4:32 a.m.

Reference frame: TEME

Reference center: EARTH

Epoch: Dec. 12, 2025, 9:03 p.m. UTC

TLE line 0: 0 FENGYUN 1C DEB

TLE line 1: 1 35171U 99025DNB 25346.87725130 .00003307 00000-0 23007-2 0 9992

TLE line 2: 2 35171 99.0086 138.2387 0137906 318.3422 40.7300 13.94966828885609

Live tracking on map

Real-time ground track for satellite FENGYUN 1C DEB.

In-orbit conjunctions

A list of the most updated potential collisions computed for object FENGYUN 1C DEB.

Target Orbit TCA Probability of collision Miss distance Type
THOR ABLESTAR DEB LEO 2025-09-24 04:52:06 0.0001204586 194.0 (m) DEBRIS
CZ-4 DEB SSO 2024-07-05 17:49:57 0.0003085987 250.0 (m) DEBRIS

Associated space launch

Chinese polar orbiting meteorological satellite

FENGYUN 1C DEB was lifted into orbit during the mission ‘Long March 4B | Feng Yun 1C’, on board a Long March 4B space rocket.

The launch took place on May 10, 1999, 1:33 a.m. from Launch Complex 7.

For more information about the launch, click the button.

Launch to space Long March 4B | Feng Yun 1C
Long March 4B | Feng Yun 1C

Agency: N/A

Status: Launch Successful

Launch date: May 10, 1999, 1:33 a.m. UTC

Rocket: Long March 4B

Launch pad: Launch Complex 7

Location: Taiyuan Satellite Launch Center, People's Republic of China

...

Latest news about this satellite

There are no fresh news available about this satellite. Check back as we update our databases every day.


Newsletter sign-up

Weekly statistics, charts and insights to help you stay on top of the space industry.